www.pogodaiklimat.ru

Погода и климат >> Архив погоды >> Гана >> Kete-Krachi


ПОГОДА в Kete-Krachi

  • Прогноз погоды в Kete-Krachi
  • Монитор погоды в Kete-Krachi
  • Климат города

АРХИВ ПОГОДЫ в Kete-Krachi

Время (UTC), дата Ветер
(напр.,м/с)
 
Видим.   Явления Облачность Т
(С)
Тd
(С)
f
(%)
Тe
(С)
Тes
(С)
Комфортность P
(гПа)
Po
(гПа)
Тmin
(С)
Tmax
(С)
R
(мм)
R24
(мм)
S
(см)
06 11.08 ЮЗ 2 22 км 9/4 400 м
[Sc Ac trans]
+24.7 +23.3 92 +33 +33 очень
душно
1015.1 1015.0 +24.3
12 11.08 ЮЗ 3 25 км 6/5 480 м
[Cu med, cong Ac trans Ci sp]
+30.0 +24.5 72 +42 +51 опасность
перегрева
1014.7 1015.0
15 11.08 Ю 2 25 км 5/3 500 м
[Cu Sc As trans Cs]
+32.0 +24.6 65 +45 +52 опасность
перегрева
1012.2 1012.0
21 11.08 штиль 0 18 км 4/0
[Ci sp]
+27.0 +24.3 85 +38 +38 очень
душно
1013.4 1013.0
12 12.08 ЮЗ 2 26 км 6/6 480 м
[Cu med, cong]
+31.0 +24.2 67 +43 +52 опасность
перегрева
1014.6 1015.0
18 12.08 ЮВ 1 24 км {морось} 9/4 420 м
[Cb cap Ac trans]
+30.7 +24.4 69 +43 +43 опасность
перегрева
1010.8 1011.0 +32.5 0.0
21 12.08 штиль 0 18 км гроза без осадков 8/5 360 м
[Cb cap Ac trans]
+27.0 +23.6 82 +37 +37 очень
душно
1013.6 1014.0
00 13.08 штиль 0 18 км гроза без осадков 8/5 360 м
[Cb cap Ac trans]
+27.0 +23.6 82 +37 +37 очень
душно
1013.6 1014.0
09 13.08 СЗ 2 18 км {гроза, дождь} 9/9 360 м
[Cu Sc]
+23.7 +22.6 94 +31 +32 очень
душно
1016.4 1016.0
12 13.08 СЗ 5 20 км {гроза, дождь} 9/5 400 м
[Cu Sc Ac trans]
+26.5 +22.6 79 +35 +38 очень
душно
1015.1 1015.0 2
15 13.08 СЗ 2 20 км 9/4 400 м
[Cu Sc Ac trans]
+27.0 +23.3 80 +36 +40 очень
душно
1012.4 1012.0
00 14.08 штиль 0 16 км 9/3 400 м
[Sc Ac trans]
+24.6 +23.8 95 +33 +33 очень
душно
1014.1 1014.0
03 14.08 штиль 0 16 км 9/0
[Ac trans]
+24.2 +23.2 94 +32 +32 очень
душно
1012.9 1013.0
06 14.08 штиль 0 22 км 9/4 360 м
[Sc Ac trans]
+24.0 +22.9 94 +32 +32 очень
душно
1013.2 1013.0 +23.5 2
12 14.08 ЮЗ 5 25 км 8/4 480 м
[Cu med, cong Ac trans Ci sp]
+29.5 +24.1 73 +41 +46 опасность
перегрева
1014.2 1014.0
15 14.08 СЗ 2 25 км 8/3 500 м
[Cu med, cong Ac trans Ci sp]
+31.0 +24.1 67 +43 +48 опасность
перегрева
1012.1 1012.0
18 14.08 ЮЗ 1 20 км 5/3 500 м
[Cb cap Ac trans Ci sp]
+29.5 +25.8 81 +44 +44 опасность
перегрева
1012.4 1012.0 +31.0
21 14.08 штиль 0 18 км 8/4 360 м
[Sc Ac trans]
+26.5 +24.5 89 +37 +37 очень
душно
1014.4 1014.0
00 15.08 штиль 0 18 км 4/0
[Ac trans]
+25.5 +24.1 92 +35 +35 очень
душно
1014.5 1015.0
03 15.08 штиль 0 12 км 4/0
[Ci sp]
+25.5 +23.4 88 +34 +34 очень
душно
1013.4 1013.0
06 15.08 штиль 0 20 км 9/9 360 м
[Sc]
+25.2 +24.2 94 +35 +35 очень
душно
1014.5 1015.0 +24.4
09 15.08 ЮЗ 2 25 км 9/9 400 м
[Cu Sc]
+25.9 +24.7 93 +37 +38 очень
душно
1016.6 1017.0
12 15.08 ЮЗ 2 25 км 6/5 480 м
[Cu med, cong Ac trans Ci sp]
+29.0 +24.1 75 +40 +50 очень
душно
1015.5 1016.0
15 15.08 ЮЗ 4 25 км 6/4 500 м
[Cu med, cong Ac trans Ci sp]
+30.5 +24.7 71 +43 +47 опасность
перегрева
1013.0 1013.0
18 15.08 Ю 2 20 км 5/3 400 м
[Cb cap Ac trans Ci sp]
+29.5 +24.9 76 +42 +42 опасность
перегрева
1013.3 1013.0 +31.2
21 15.08 штиль 0 18 км 5/0
[Ci sp]
+26.5 +24.7 90 +38 +38 очень
душно
1014.6 1015.0
00 16.08 ЮВ 1 18 км 4/0
[Ci sp]
+25.2 +24.2 94 +35 +35 очень
душно
1015.2 1015.0
03 16.08 Ю 1 18 км 6/3 400 м
[Sc Ac trans Ci sp]
+25.5 +24.1 92 +35 +35 очень
душно
1014.7 1015.0
06 16.08 ЮВ 2 22 км 9/5 360 м
[Sc Ac trans]
+25.0 +23.5 91 +34 +34 очень
душно
1015.4 1015.0 +24.1
09 16.08 ЮЗ 1 25 км 8/6 400 м
[Cu Sc Ci sp]
+26.5 +23.9 86 +37 +41 очень
душно
1017.0 1017.0
12 16.08 ЮЗ 4 25 км 8/6 400 м
[Cu Sc Ac trans Ci sp]
+29.0 +24.4 76 +41 +45 опасность
перегрева
1015.7 1016.0
18 16.08 СЗ 2 20 км 9/3 500 м
[Cb cap Ac trans Cs]
+29.2 +25.5 80 +43 +43 опасность
перегрева
1012.9 1013.0 +31.5
21 16.08 штиль 0 18 км 6/0
[Ac trans]
+27.5 +25.7 90 +41 +41 опасность
перегрева
1014.3 1014.0
03 17.08 ЮЗ 1 18 км 8/3 360 м
[Sc Ac trans Ci sp]
+25.5 +24.8 96 +36 +36 очень
душно
1014.0 1014.0
06 17.08 ЮЗ 2 20 км 8/4 360 м
[Sc Ac trans Cs]
+24.8 +23.7 94 +34 +34 очень
душно
1015.1 1015.0 +24.4
18 17.08 СВ 2 20 км гроза без осадков 9/4 400 м
[Cb cap Ac trans Cs]
+26.5 +24.0 86 +37 +37 очень
душно
1011.5 1012.0 +31.5
21 17.08 штиль 0 16 км гроза без осадков {дождь} 9/6 400 м
[Cb cap Ac trans]
+26.5 +25.2 93 +38 +38 очень
душно
1013.3 1013.0

 

Местоположение метеостанции Kete-Krachi (Гана): широта 7.82 долгота -0.03 высота над уровнем моря 122 м.

В архиве по умолчанию представлена погода в Kete-Krachi за последнюю неделю. Архивные данные за месяц целиком и за предыдущие месяцы, начиная с января 2011 года, Вы можете получить, выбрав интересующий диапазон дат из раскрывающегося списка и нажав кнопку "Ввод!".


*Определитесь, кто Вы:
робот инопланетянин человек

Внимание! Время в таблицах - всемирное. Для получения местного времени необходимо прибавить поправку, которая в Kete-Krachi равна 1 ч.

Смотрите также архив погоды в соседних городах и на ближайших метеорологических станциях:

Погода в Atakpame (Того) (130 км)
Погода в Ho (Гана) (146 км)
Погода в Abetifi (Гана) (151 км)
Погода в Yendi (Гана) (181 км)
Погода в Sokode (Того) (183 км)
Погода в Akuse (Гана) (192 км)
Погода в Koforidua (Гана) (195 км)
Погода в Tamale (Гана) (207 км)
Погода в Akatsi (Гана) (210 км)
Погода в Kumasi (Гана) (212 км)

Пояснения к столбцам:

Ветер - указаны скорость ветра в м/с - средняя за 10 мин, порывы в срок и между сроками (в фигурных скобках) и направление, откуда дует ветер: С - северный, СВ - северо-восточный, В - восточный, ЮВ - юго-восточный, Ю - южный, ЮЗ - юго-западный, З - западный, СЗ - северо-западный.
Видимость - горизонтальная дальность видимости в метрах или километрах. При видимости от 1 до 10 км при отсутствии осадков обычно наблюдается дымка, при ухудшении видимости до 1 км и менее - туман. В сухую погоду видимость может ухудшаться дымом, пылью или мглою.
Явления - указаны атмосферные явления, наблюдавшиеся в срок или в последний час перед сроком; фигурными скобками обозначены явления, наблюдавшиеся между сроками (за 1-3 часа до срока); квадратными скобками обозначены град или гололедные отложения с указанием их диаметра в мм.
Облачность - указаны через наклонную черту общая и нижняя облачность в баллах и высота нижней границы облаков в метрах; квадратными скобками обозначены формы облаков: Ci - перистые, Cs - перисто-слоистые, Cc - перисто-кучевые, Ac - высококучевые, As - высокослоистые, Sc - слоисто-кучевые, Ns - слоисто-дождевые, Cu - кучевые, Cb - кучево-дождевые. Подробнее классификацию облаков см. в Атласе облаков (PDF).
T - Температура воздуха - температура, измеренная на высоте 2 м над землей.
Td - Температура точки росы - температура, при понижении до которой содержащийся в воздухе водяной пар достигнет насыщения.
f - Относительная влажность воздуха - влажноcть воздуха, измеренная на высоте 2 м над землей.
Te - Эффективная температура - температура, которую ощущает одетый по сезону человек в тени. Характеристика душности погоды. При расчете учитывается влияние влажности воздуха и скорости ветра на теплоощущения человека.
Tes - Эффективная температура на солнце - температура, которую ощущает человек, с поправкой на солнечный нагрев. Характеристика знойности погоды. Зависит от высоты солнца над горизонтом, облачности и скорости ветра. Ночью, в пасмурную погоду, а также при ветре 12 м/с и более поправка равна нулю.
P - Атмосферное давление - приведенное к уровню моря атмосферное давление.
Po - Атмосферное давление - измеренное на уровне метеостанции атмосферное давление.
Tmin - Минимальная температура - минимум температуры воздуха на высоте 2 м над землей.
Tmax - Максимальная температура - максимум температуры воздуха на высоте 2 м над землей.
R - Количество осадков - Количество выпавших осадков за период времени, мм. При наведении курсора мыши на число - период времени, за который выпало указанное количество осадков.
R24 - Количество осадков - Количество выпавших осадков за 24 часа, мм.
S - Снежный покров - Высота снежного покрова, см. При наведении курсора мыши на число - состояние снежного покрова и степень покрытия местности в баллах.